Вернуться в каталог

OPS 4682 DEB

АктивенPO
NORAD 38408·DEBRIS·🇺🇸 United States

Запущен Apr 3, 1965 с Vandenberg Space Force Base

Loading…

Ближайшие Пролёты (ближайшие 24 часа)

TLE

СвежийSource: Space-Track

Эпоха: Sep 14, 2026, 13:52 UTC

1 38408U 65027DM  26257.57789927 -.00000028  00000-0 -11164-3 0  9997
2 38408  90.2946  17.8188 0041596 288.9557  70.7061 13.02208934616845

Отслеживайте OPS 4682 DEB в реальном времени с AllMySat

Download on the App Store